| time (UTC) | temp F | wind direction | speed knots | gust knots | rain 1hr in | rain 24hr in | rain mn in | humidity % | barometer mb |
| 20260504001746 | 52 | 270 | 1.7 | 5.2 | 0.00 | 0.00 | 0.00 | 72 | 1006.2 |
| 20260504000745 | 52 | 270 | 0.9 | 5.2 | 0.00 | 0.00 | 0.00 | 72 | 1006.2 |
| 20260503235745 | 52 | 293 | 1.7 | 5.2 | 0.00 | 0.00 | 0.00 | 72 | 1006.1 |
| 20260503234746 | 52 | 248 | 2.6 | 7.0 | 0.00 | 0.00 | 0.00 | 73 | 1006.2 |
| 20260503233746 | 52 | 248 | 1.7 | 4.3 | 0.00 | 0.00 | 0.00 | 73 | 1006.3 |
| 20260503232745 | 52 | 293 | 3.5 | 7.8 | 0.00 | 0.00 | 0.00 | 73 | 1006.4 |
| 20260503231745 | 52 | 293 | 4.3 | 12.2 | 0.00 | 0.00 | 0.00 | 74 | 1006.5 |
| 20260503230745 | 51 | 270 | 3.5 | 8.7 | 0.00 | 0.00 | 0.00 | 75 | 1006.5 |
| 20260503225806 | 51 | 293 | 3.5 | 10.4 | 0.00 | 0.00 | 0.00 | 76 | 1006.5 |
| 20260503224746 | 52 | 293 | 4.3 | 11.3 | 0.00 | 0.00 | 0.00 | 75 | 1006.7 |
| 20260503223745 | 51 | 293 | 3.5 | 9.6 | 0.00 | 0.00 | 0.00 | 75 | 1006.6 |
| 20260503222746 | 51 | 293 | 3.5 | 9.6 | 0.00 | 0.00 | 0.00 | 77 | 1006.7 |
| 20260503221746 | 51 | 293 | 4.3 | 7.8 | 0.00 | 0.00 | 0.00 | 77 | 1006.8 |
| 20260503220746 | 51 | 293 | 4.3 | 9.6 | 0.00 | 0.00 | 0.00 | 77 | 1006.9 |
| 20260503215746 | 51 | 293 | 3.5 | 8.7 | 0.00 | 0.00 | 0.00 | 77 | 1006.9 |
| 20260503214745 | 51 | 293 | 4.3 | 13.0 | 0.00 | 0.00 | 0.00 | 77 | 1007.1 |
| 20260503213746 | 51 | 293 | 5.2 | 11.3 | 0.00 | 0.00 | 0.00 | 76 | 1007.0 |
| 20260503212745 | 52 | 293 | 5.2 | 11.3 | 0.00 | 0.00 | 0.00 | 74 | 1006.9 |
| 20260503211745 | 52 | 293 | 7.0 | 19.1 | 0.00 | 0.00 | 0.00 | 74 | 1006.8 |
| 20260503210745 | 53 | 293 | 7.8 | 20.9 | 0.00 | 0.00 | 0.00 | 70 | 1006.8 |
| 20260503205745 | 55 | 293 | 6.1 | 12.2 | 0.00 | 0.00 | 0.00 | 63 | 1006.5 |
| 20260503204746 | 56 | 293 | 7.8 | 18.2 | 0.00 | 0.00 | 0.00 | 58 | 1006.5 |
| 20260503203745 | 56 | 293 | 6.1 | 15.6 | 0.00 | 0.00 | 0.00 | 55 | 1006.3 |
| 20260503202745 | 55 | 0.0 | 0.9 | 0.00 | 0.00 | 0.00 | 55 | 1006.0 | |
| 20260503201745 | 55 | 0.0 | 1.7 | 0.00 | 0.00 | 0.00 | 54 | 1006.1 | |
| 20260503200745 | 55 | 113 | 0.9 | 3.5 | 0.00 | 0.00 | 0.00 | 56 | 1006.2 |
| 20260503195745 | 55 | 158 | 0.9 | 3.5 | 0.00 | 0.00 | 0.00 | 53 | 1006.6 |
| 20260503194745 | 56 | 135 | 0.9 | 4.3 | 0.00 | 0.00 | 0.00 | 51 | 1006.4 |
| 20260503193746 | 56 | 135 | 2.6 | 6.1 | 0.00 | 0.00 | 0.00 | 51 | 1006.5 |
| 20260503192745 | 56 | 135 | 2.6 | 6.1 | 0.00 | 0.00 | 0.00 | 51 | 1006.7 |
| 20260503191746 | 55 | 135 | 1.7 | 6.1 | 0.00 | 0.00 | 0.00 | 52 | 1007.0 |
| 20260503190805 | 55 | 135 | 3.5 | 7.8 | 0.00 | 0.00 | 0.00 | 49 | 1007.4 |
| 20260503185805 | 56 | 135 | 2.6 | 9.6 | 0.00 | 0.00 | 0.00 | 45 | 1007.6 |
| 20260503184745 | 57 | 135 | 2.6 | 5.2 | 0.00 | 0.00 | 0.00 | 43 | 1007.7 |
| 20260503183745 | 58 | 135 | 3.5 | 9.6 | 0.00 | 0.00 | 0.00 | 40 | 1007.8 |
| 20260503182745 | 58 | 135 | 3.5 | 9.6 | 0.00 | 0.00 | 0.00 | 38 | 1008.1 |
| 20260503181745 | 57 | 135 | 3.5 | 8.7 | 0.00 | 0.00 | 0.00 | 39 | 1008.1 |
| 20260503180805 | 57 | 135 | 3.5 | 9.6 | 0.00 | 0.00 | 0.00 | 38 | 1008.4 |
| 20260503175745 | 57 | 158 | 2.6 | 7.0 | 0.00 | 0.00 | 0.00 | 39 | 1008.5 |
| 20260503174745 | 56 | 248 | 3.5 | 12.2 | 0.00 | 0.00 | 0.00 | 39 | 1008.7 |
| 20260503173745 | 57 | 135 | 3.5 | 9.6 | 0.00 | 0.00 | 0.00 | 38 | 1008.9 |
| 20260503172805 | 56 | 225 | 1.7 | 5.2 | 0.00 | 0.00 | 0.00 | 40 | 1009.0 |
| 20260503171745 | 55 | 135 | 2.6 | 8.7 | 0.00 | 0.00 | 0.00 | 40 | 1009.2 |
| 20260503170745 | 55 | 135 | 3.5 | 11.3 | 0.00 | 0.00 | 0.00 | 43 | 1009.5 |
| 20260503150805 | 49 | 270 | 2.6 | 6.1 | 0.00 | 0.00 | 0.00 | 49 | 1010.8 |
| 20260503130805 | 45 | 270 | 1.7 | 4.3 | 0.00 | 0.00 | 0.00 | 58 | 1011.4 |
| 20260503110744 | 32 | 0.0 | 0.0 | 0.00 | 0.00 | 0.00 | 83 | 1011.4 | |
| 20260503080746 | 30 | 0.0 | 0.0 | 0.00 | 0.00 | 0.00 | 81 | 1012.1 | |
| 20260503072746 | 30 | 0.0 | 0.0 | 0.00 | 0.00 | 0.00 | 79 | 1012.2 | |
| 20260503071746 | 30 | 0.0 | 0.0 | 0.00 | 0.00 | 0.00 | 78 | 1012.2 | |
| 20260503070806 | 31 | 0.0 | 0.0 | 0.00 | 0.00 | 0.00 | 77 | 1012.1 | |
| 20260503054746 | 33 | 0.0 | 0.0 | 0.00 | 0.00 | 0.00 | 72 | 1012.6 | |
| 20260503053745 | 34 | 0.0 | 0.0 | 0.00 | 0.00 | 0.00 | 70 | 1012.7 | |
| 20260503052826 | 34 | 0.0 | 0.0 | 0.00 | 0.00 | 0.00 | 69 | 1012.9 | |
| 20260503051806 | 34 | 0.0 | 0.0 | 0.00 | 0.00 | 0.00 | 67 | 1012.9 | |
| 20260503050746 | 35 | 0.0 | 0.0 | 0.00 | 0.00 | 0.00 | 68 | 1012.9 | |
| 20260503045746 | 35 | 0.0 | 0.0 | 0.00 | 0.00 | 0.00 | 64 | 1012.8 | |
| 20260503044746 | 36 | 0.0 | 0.0 | 0.00 | 0.00 | 0.00 | 62 | 1012.9 | |
| 20260503043807 | 37 | 293 | 0.9 | 1.7 | 0.00 | 0.00 | 0.00 | 57 | 1012.9 |
| 20260503042746 | 37 | 0.0 | 0.9 | 0.00 | 0.00 | 0.00 | 59 | 1012.9 | |
| 20260503041746 | 37 | 0.0 | 0.9 | 0.00 | 0.00 | 0.00 | 60 | 1013.0 | |
| 20260503040746 | 38 | 0.0 | 0.9 | 0.00 | 0.00 | 0.00 | 60 | 1013.0 | |
| 20260503035746 | 38 | 0.0 | 0.9 | 0.00 | 0.00 | 0.00 | 61 | 1013.0 | |
| 20260503034746 | 38 | 0.0 | 0.9 | 0.00 | 0.00 | 0.00 | 64 | 1013.0 | |
| 20260503033746 | 38 | 0.0 | 1.7 | 0.00 | 0.00 | 0.00 | 64 | 1013.0 | |
| 20260503032806 | 38 | 293 | 0.9 | 1.7 | 0.00 | 0.00 | 0.00 | 66 | 1012.9 |
| 20260503031746 | 38 | 0.0 | 0.9 | 0.00 | 0.00 | 0.00 | 66 | 1012.9 | |
| 20260503030746 | 38 | 0.0 | 0.9 | 0.00 | 0.00 | 0.00 | 67 | 1012.9 | |
| 20260503025746 | 37 | 0.0 | 0.9 | 0.00 | 0.00 | 0.00 | 70 | 1013.0 | |
| 20260503024746 | 37 | 0.0 | 0.0 | 0.00 | 0.00 | 0.00 | 72 | 1013.0 | |
| 20260503023745 | 37 | 0.0 | 0.0 | 0.00 | 0.00 | 0.00 | 72 | 1013.1 | |
| 20260503022826 | 37 | 0.0 | 0.0 | 0.00 | 0.00 | 0.00 | 72 | 1013.1 | |
| 20260503021806 | 37 | 0.0 | 0.0 | 0.00 | 0.00 | 0.00 | 72 | 1013.1 | |
| 20260503020746 | 37 | 0.0 | 0.0 | 0.00 | 0.00 | 0.00 | 71 | 1013.0 | |
| 20260503015746 | 38 | 0.0 | 0.0 | 0.00 | 0.00 | 0.00 | 69 | 1013.1 | |
| 20260503014746 | 38 | 0.0 | 0.0 | 0.00 | 0.00 | 0.00 | 66 | 1013.0 | |
| 20260503013746 | 39 | 0.0 | 0.0 | 0.00 | 0.00 | 0.00 | 64 | 1013.1 | |
| 20260503012746 | 40 | 0.0 | 0.0 | 0.00 | 0.00 | 0.00 | 64 | 1013.0 | |
| 20260503011745 | 40 | 0.0 | 0.9 | 0.00 | 0.00 | 0.00 | 62 | 1013.0 | |
| 20260503010745 | 41 | 0.0 | 0.0 | 0.00 | 0.00 | 0.00 | 60 | 1013.0 | |
| 20260503005746 | 41 | 0.0 | 0.0 | 0.00 | 0.00 | 0.00 | 57 | 1012.9 | |
| 20260503004746 | 42 | 0.0 | 0.0 | 0.00 | 0.00 | 0.00 | 57 | 1012.8 | |
| 20260503003746 | 43 | 0.0 | 0.9 | 0.00 | 0.00 | 0.00 | 55 | 1012.9 | |
| 20260503002808 | 43 | 0.0 | 2.6 | 0.00 | 0.00 | 0.00 | 53 | 1012.8 |